Stations météo

réclame
Mon MeteoGroup
Kempten, Allemagne (10946): Température de l'air & dewpoint: 13.11.2017 18:00:00 - 19.11.2017 18:00:00 (CET)Kempten, Allemagne (10946): Température de l'air 5cm & Température de l'air -5cm: 13.11.2017 18:00:00 - 19.11.2017 18:00:00 (CET)Kempten, Allemagne (10946): Température de l'air -20cm & Température de l'air -100cm: 13.11.2017 18:00:00 - 19.11.2017 18:00:00 (CET)Kempten, Allemagne (10946): Vitesse du vent & gusts: 13.11.2017 18:00:00 - 19.11.2017 18:00:00 (CET)Kempten, Allemagne (10946): Direction du vent: 13.11.2017 18:00:00 - 19.11.2017 18:00:00 (CET)Kempten, Allemagne (10946): reduced air pressure: 13.11.2017 18:00:00 - 19.11.2017 18:00:00 (CET)Kempten, Allemagne (10946): visibility: 13.11.2017 18:00:00 - 19.11.2017 18:00:00 (CET)Kempten, Allemagne (10946): Ensoleillement: 13.11.2017 18:00:00 - 19.11.2017 18:00:00 (CET)Kempten, Allemagne (10946): Quantités de précipitations: 13.11.2017 18:00:00 - 19.11.2017 18:00:00 (CET)
Date & Time tt [°C] td [°C] tt 5cm [°C] tt -5cm [°C] tt -20cm [°C] tt -100cm [°C] ff [km/h] ff [knt] fx [km/h] fx [knt] dd ppp [hPa] vv [km] sd [min] rr [mm]
19.11.2017 18:00:00 1,4 -1,7 0,5 1,3 2,7 8,7 10 6 19 11 SW 1023,2 34 0 0,0
19.11.2017 17:00:00 1,6 -2,0 0,7 1,5 2,7 8,7 9 5 25 13 SW 1022,9 34 0 0,0
19.11.2017 16:00:00 1,9 -2,1 1,3 1,8 2,7 8,7 11 6 26 14 W 1022,0 37 0 0,0
19.11.2017 15:00:00 2,0 -1,8 1,8 1,7 2,7 8,7 10 5 29 16 W 1021,3 38 1 0,0
19.11.2017 14:00:00 2,3 -1,3 2,2 1,3 2,7 8,7 16 8 32 18 WNW 1020,8 20 22 0,0
19.11.2017 13:00:00 2,1 -1,6 1,6 0,9 2,7 8,7 18 10 38 20 W 1020,5 12 5 0,2
19.11.2017 12:00:00 1,6 -0,3 0,7 0,9 2,8 8,7 14 7 29 16 W 1020,3 8 0 0,2
19.11.2017 11:00:00 1,9 -0,3 1,5 0,9 2,8 8,7 16 9 34 19 WSW 1019,6 24 7 0,0
19.11.2017 10:00:00 1,2 -0,4 0,2 0,9 2,9 8,7 16 9 29 15 SW 1019,2 17 0 0,7
19.11.2017 09:00:00 0,8 -0,3 0,0 1,0 2,9 8,7 15 8 37 20 SW 1019,3 5 0 0,9
19.11.2017 08:00:00 0,8 -0,5 0,0 1,0 3,0 8,8 14 7 46 25 WSW 1018,5 6 0 0,9
19.11.2017 07:00:00 0,3 -0,4 0,0 1,0 3,1 8,8 16 8 29 16 SSW 1018,2 1,1 0 0,8
19.11.2017 06:00:00 0,3 -0,3 0,0 1,0 3,1 8,8 13 7 25 14 S 1018,7 0,9 0 2,2
19.11.2017 05:00:00 0,3 -0,5 0,0 1,1 3,2 8,8 14 7 32 17 S 1019,2 1,3 0 0,4
19.11.2017 04:00:00 0,5 -0,6 0,0 1,1 3,3 8,8 13 7 34 18 SSW 1019,7 1,5 0 0,3
19.11.2017 03:00:00 0,4 -0,6 0,0 1,2 3,5 8,8 11 6 28 15 SSW 1020,7 0,9 0 0,6
19.11.2017 02:00:00 0,3 -0,3 0,0 1,4 3,6 8,8 15 8 32 17 S 1020,7 0,7 0 0,5
19.11.2017 01:00:00 1,5 -1,6 1,2 2,1 3,6 8,8 12 6 21 12 SW 1021,4 14 0 0,0
19.11.2017 00:00:00 1,5 -1,8 1,1 2,2 3,7 8,8 12 6 27 15 WSW 1022,1 15 0 0,0
18.11.2017 23:00:00 2,0 -1,5 1,6 2,4 3,8 8,8 11 6 20 11 W 1022,9 14 0 0,0
18.11.2017 22:00:00 2,2 -1,8 1,9 2,5 3,8 8,8 12 6 32 17 WSW 1022,9 16 0 0,0
18.11.2017 21:00:00 2,3 -1,3 1,9 2,6 3,9 8,8 11 6 22 12 WSW 1023,3 14 0 0,0
18.11.2017 20:00:00 2,5 -1,3 2,0 2,7 4,0 8,8 11 6 25 14 WSW 1023,1 16 0 0,0
18.11.2017 19:00:00 2,5 -1,6 2,1 2,9 4,0 8,8 9 5 25 14 SW 1022,9 16 0 0,0
18.11.2017 18:00:00 2,6 -1,0 2,2 3,2 4,1 8,8 11 6 29 16 SW 1022,8 17 0 0,0
18.11.2017 17:00:00 2,7 -0,1 2,5 3,5 4,1 8,8 11 6 27 14 W 1022,8 17 0 0,0
18.11.2017 16:00:00 2,8 0,6 2,6 3,8 4,1 8,8 6 3 19 10 WSW 1022,6 15 0 0,0
18.11.2017 15:00:00 2,8 0,2 2,9 4,1 4,0 8,8 10 6 22 12 SW 1022,5 21 0 0,0
18.11.2017 14:00:00 2,7 0,6 3,2 4,5 3,9 8,9 9 5 19 11 SW 1023,2 12 0 0,0
18.11.2017 13:00:00 3,2 0,8 4,1 4,4 3,7 8,9 8 5 16 9 WSW 1023,7 21 0 0,0
18.11.2017 12:00:00 3,0 0,5 3,9 4,1 3,5 8,9 7 4 12 6 SW 1023,9 19 0 0,0
18.11.2017 11:00:00 2,5 0,6 3,5 3,8 3,4 8,9 9 5 14 8 SSW 1024,6 11 0 0,0
18.11.2017 10:00:00 2,1 0,6 3,2 3,0 3,3 8,9 8 4 13 7 S 1024,7 8 0 0,0
18.11.2017 09:00:00 1,7 -0,3 2,0 2,4 3,3 8,9 6 4 9 5 S 1025,1 10 0 0,0
18.11.2017 08:00:00 1,3 -0,4 1,2 2,1 3,3 8,9 7 4 16 9 S 1024,9 9 0 0,0
18.11.2017 07:00:00 1,2 -0,3 1,0 2,1 3,3 8,9 7 4 11 6 S 1024,9 8 0 0,0
18.11.2017 06:00:00 1,1 -0,3 1,0 2,1 3,3 8,9 6 3 10 5 S 1025,2 8 0 0,0
18.11.2017 05:00:00 1,0 -0,4 0,9 2,1 3,3 8,9 6 3 10 5 S 1025,1 8 0 0,0
18.11.2017 04:00:00 1,0 -0,4 0,9 2,1 3,3 8,9 3 2 12 6 WNW 1025,1 8 0 0,0
18.11.2017 03:00:00 0,9 -0,3 0,9 2,2 3,3 8,9 6 3 8 4 WNW 1025,1 6 0 0,0
18.11.2017 02:00:00 1,0 -0,3 1,0 2,1 3,3 8,9 5 3 8 4 SSE 1024,9 6 0 0,0
18.11.2017 01:00:00 1,2 0,1 1,0 2,1 3,3 9,0 2 1 5 3 S 1025,6 5 0 0,0
18.11.2017 00:00:00 1,1 0,0 0,9 2,1 3,3 9,0 1 1 6 4 SE 1026,2 5 0 0,0
17.11.2017 23:00:00 0,7 -0,2 0,7 2,0 3,3 9,0 2 1 5 3 E 1026,5 3,9 0 0,0
17.11.2017 22:00:00 0,4 -0,4 0,3 1,8 3,4 9,0 0 0 6 3 N 1026,6 4,5 0 0,0
17.11.2017 21:00:00 -0,4 -1,2 -0,4 1,5 3,6 9,0 5 3 6 3 E 1026,9 3,4 0 0,0
17.11.2017 20:00:00 -0,8 -1,6 -2,5 1,5 3,8 9,0 0 0 6 4 N 1027,0 3,1 0 0,0
17.11.2017 19:00:00 0,2 -0,8 -0,8 2,3 3,9 9,0 5 3 6 3 E 1026,7 3,3 0 0,0
17.11.2017 18:00:00 1,4 -0,1 0,2 3,2 3,9 9,0 3 2 5 3 E 1026,3 4,9 0 0,0
17.11.2017 17:00:00 2,1 0,2 2,0 3,8 3,9 9,0 2 1 6 3 ESE 1026,1 7 0 0,0
17.11.2017 16:00:00 2,4 0,1 2,4 4,3 3,8 9,0 4 2 11 6 N 1026,4 7 0 0,0
17.11.2017 15:00:00 2,4 -0,4 3,1 4,8 3,6 9,0 8 4 14 7 NNE 1026,5 8 0 0,0
17.11.2017 14:00:00 2,3 -1,0 3,5 4,7 3,3 9,1 5 3 9 5 NNE 1026,6 14 0 0,0
17.11.2017 13:00:00 2,0 -1,7 3,3 4,8 3,0 9,1 5 3 6 4 E 1026,8 10 0 0,0
17.11.2017 12:00:00 1,6 -1,9 4,3 3,8 2,7 9,1 3 2 6 3 ESE 1027,2 9 0 0,0
17.11.2017 11:00:00 0,5 -2,0 2,3 2,5 2,6 9,1 1 1 10 5 S 1027,9 8 0 0,0
17.11.2017 10:00:00 -0,5 -2,3 0,7 1,7 2,5 9,1 3 2 9 5 ESE 1028,1 7 0 0,0
17.11.2017 09:00:00 -1,0 -2,6 -0,4 1,0 2,5 9,1 4 2 8 4 NNW 1028,3 7 0 0,0
17.11.2017 08:00:00 -1,9 -2,8 -1,4 0,7 2,5 9,1 5 3 14 8 SE 1028,2 3,6 0 0,0
17.11.2017 07:00:00 -2,2 -3,0 -1,8 0,7 2,6 9,1 8 4 14 8 SSE 1028,2 2,5 0 0,0
17.11.2017 06:00:00 -1,8 -2,8 -1,5 0,9 2,6 9,1 7 4 12 7 S 1028,2 3,4 0 0,0
17.11.2017 05:00:00 -1,6 -2,5 -1,4 0,9 2,7 9,1 5 3 13 7 S 1028,0 4,0 0 0,0
17.11.2017 04:00:00 -1,2 -2,4 -1,1 1,0 2,7 9,1 8 4 13 7 S 1027,7 4,8 0 0,0
17.11.2017 03:00:00 -0,8 -2,9 -1,0 1,1 2,7 9,2 6 4 11 6 SSW 1027,7 6 0 0,0
17.11.2017 02:00:00 -0,4 -2,7 -0,6 1,2 2,8 9,2 4 2 11 6 SSW 1027,6 6 0 0,0
17.11.2017 01:00:00 -0,2 -2,5 -0,5 1,2 2,8 9,2 4 2 11 6 W 1027,4 5 0 0,0
17.11.2017 00:00:00 0,0 -2,6 -0,3 1,3 2,8 9,2 4 2 10 6 SSW 1027,2 7 0 0,0
16.11.2017 23:00:00 0,0 -2,5 -0,4 1,3 2,9 9,2 5 3 14 8 WSW 1026,9 7 0 0,0
16.11.2017 22:00:00 0,0 -2,5 -0,3 1,3 2,9 9,2 6 3 14 7 WSW 1026,9 7 0 0,0
16.11.2017 21:00:00 0,0 -2,6 -0,3 1,4 3,0 9,2 8 4 13 7 SW 1026,5 7 0 0,0
16.11.2017 20:00:00 0,1 -2,4 -0,3 1,5 3,0 9,2 2 1 8 5 WNW 1026,4 7 0 0,0
16.11.2017 19:00:00 0,1 -2,5 -0,8 1,7 3,1 9,2 5 3 16 8 WSW 1026,2 8 0 0,0
16.11.2017 18:00:00 0,3 -2,4 0,1 2,0 3,1 9,3 6 4 13 7 WSW 1025,7 9 0 0,0
16.11.2017 17:00:00 0,5 -2,0 0,2 2,4 3,1 9,3 5 3 13 7 SW 1025,3 8 0 0,0
16.11.2017 16:00:00 0,6 -2,1 0,7 2,8 2,9 9,3 6 4 11 6 NW 1025,2 9 0 0,0
16.11.2017 15:00:00 0,3 -2,6 1,3 3,0 2,8 9,3 4 2 11 6 WSW 1024,9 10 0 0,0
16.11.2017 14:00:00 0,0 -2,6 1,5 2,8 2,6 9,3 3 2 10 5 S 1025,0 8 0 0,0
16.11.2017 13:00:00 -0,6 -3,3 1,4 2,2 2,4 9,3 3 2 10 5 S 1025,8 10 0 0,0
16.11.2017 12:00:00 -1,1 -3,8 0,1 1,5 2,3 9,3 5 3 10 5 ESE 1026,0 11 0 0,0
16.11.2017 11:00:00 -1,6 -4,1 -0,6 0,8 2,3 9,3 2 1 11 6 ESE 1026,6 9 0 0,0
16.11.2017 10:00:00 -1,8 -4,0 -1,0 0,7 2,3 9,3 6 3 10 5 ESE 1026,3 10 0 0,0
16.11.2017 09:00:00 -1,8 -3,8 -1,3 0,6 2,3 9,3 5 3 10 6 SE 1026,4 8 0 0,0
16.11.2017 08:00:00 -1,8 -4,0 -1,6 0,6 2,3 9,4 5 3 9 5 SE 1026,2 9 0 0,0
16.11.2017 07:00:00 -1,6 -3,6 -1,6 0,6 2,3 9,4 4 2 9 5 S 1025,5 9 0 0,0
16.11.2017 06:00:00 -1,3 -3,5 -1,4 0,6 2,3 9,4 5 3 9 5 S 1025,0 10 0 0,0
16.11.2017 05:00:00 -1,1 -2,8 -1,3 0,6 2,3 9,4 1 0 9 5 ESE 1025,4 7 0 0,0
16.11.2017 04:00:00 -1,4 -3,2 -1,3 0,6 2,3 9,4 4 2 11 6 ENE 1025,3 7 0 0,0
16.11.2017 03:00:00 -1,4 -3,3 -1,3 0,6 2,3 9,4 6 4 13 7 E 1025,9 8 0 0,0
16.11.2017 02:00:00 -1,2 -3,1 -1,1 0,6 2,3 9,4 6 3 11 6 ENE 1025,8 7 0 0,0
16.11.2017 01:00:00 -1,0 -2,8 -1,0 0,5 2,3 9,4 6 3 18 10 E 1025,9 7 0 0,0
16.11.2017 00:00:00 -0,8 -2,7 -0,8 0,5 2,3 9,4 6 3 14 7 ESE 1026,1 8 0 0,0
15.11.2017 23:00:00 -0,9 -2,7 -0,9 0,5 2,3 9,4 11 6 19 10 E 1026,6 8 0 0,0
15.11.2017 22:00:00 -0,5 -2,2 -0,6 0,5 2,3 9,5 7 4 16 9 E 1026,7 7 0 0,0
15.11.2017 21:00:00 -0,3 -2,2 -0,5 0,5 2,3 9,5 8 4 17 9 E 1027,1 8 0 0,0
15.11.2017 20:00:00 -0,1 -2,0 -0,4 0,5 2,3 9,5 7 4 19 11 ENE 1026,9 9 0 0,0
15.11.2017 19:00:00 -0,2 -1,8 -0,6 0,4 2,3 9,5 2 1 22 12 E 1026,7 8 0 0,0
15.11.2017 18:00:00 -0,5 -2,4 -1,3 0,4 2,3 9,5 4 2 9 5 ENE 1026,7 12 0 0,0
15.11.2017 17:00:00 -0,4 -2,5 -2,8 0,3 2,3 9,5 1 1 11 6 ESE 1026,6 18 27 0,0
15.11.2017 16:00:00 1,2 -2,2 -0,1 0,3 2,2 9,5 5 3 13 7 E 1026,1 23 60 0,0
15.11.2017 15:00:00 1,8 -2,5 1,2 0,3 2,2 9,5 6 4 14 8 ENE 1026,0 14 60 0,0
15.11.2017 14:00:00 1,3 -2,8 1,5 0,1 2,2 9,5 8 5 17 9 NE 1026,4 14 60 0,0
15.11.2017 13:00:00 0,4 -3,8 1,3 0,0 2,2 9,5 8 4 13 7 NE 1027,2 18 60 0,0
15.11.2017 12:00:00 -0,8 -4,2 0,2 0,0 2,2 9,5 7 4 11 6 NE 1028,1 11 60 0,0
15.11.2017 11:00:00 -2,0 -5,0 -0,2 -0,1 2,3 9,6 5 3 13 7 NE 1029,2 10 60 0,0
15.11.2017 10:00:00 -3,1 -5,4 -1,4 -0,2 2,3 9,6 5 3 13 7 ENE 1029,8 14 60 0,0
15.11.2017 09:00:00 -4,8 -6,3 -3,1 -0,2 2,4 9,6 1 1 6 3 NE 1030,2 13 60 0,0
15.11.2017 08:00:00 -7,2 -8,5 -8,2 -0,2 2,5 9,6 3 1 6 3 ESE 1031,0 11 4 0,0
15.11.2017 07:00:00 -7,2 -8,4 -8,4 -0,1 2,5 9,6 4 2 6 3 E 1030,6 11 0 0,0
15.11.2017 06:00:00 -7,0 -8,3 -8,0 0,0 2,6 9,6 5 3 8 4 ESE 1030,1 13 0 0,0
15.11.2017 05:00:00 -6,6 -7,8 -7,9 0,1 2,7 9,6 4 2 6 3 ESE 1030,4 10 0 0,0
15.11.2017 04:00:00 -5,8 -6,4 -6,5 0,2 2,7 9,6 3 2 8 4 E 1030,4 0,4 0 0,0
15.11.2017 03:00:00 -5,4 -5,8 -5,2 0,2 2,8 9,6 6 3 8 4 E 1030,3 0,2 0 0,0
15.11.2017 02:00:00 -5,7 -6,9 -5,8 0,2 2,9 9,6 3 2 9 5 SSE 1030,8 3,6 0 0,0
15.11.2017 01:00:00 -5,5 -6,5 -6,5 0,3 3,0 9,6 6 3 8 4 E 1030,9 8 0 0,0
15.11.2017 00:00:00 -5,2 -6,3 -6,2 0,4 3,1 9,6 6 3 8 4 E 1030,9 8 0 0,0
14.11.2017 23:00:00 -4,5 -5,5 -5,4 0,5 3,2 9,7 5 3 10 5 ESE 1030,7 6 0 0,0
14.11.2017 22:00:00 -4,4 -5,3 -4,4 0,6 3,3 9,7 4 2 8 4 E 1031,0 6 0 0,0
14.11.2017 21:00:00 -3,9 -4,9 -5,1 0,7 3,4 9,7 4 2 9 5 E 1030,6 6 0 0,0
14.11.2017 20:00:00 -3,4 -4,3 -4,3 0,8 3,6 9,7 6 4 8 4 E 1030,4 6 0 0,0
14.11.2017 19:00:00 -2,5 -3,3 -3,8 0,9 3,8 9,7 5 3 6 3 E 1029,7 6 0 0,0
14.11.2017 18:00:00 -1,6 -2,3 -2,8 1,1 4,0 9,7 5 3 8 4 E 1028,7 4,9 0 0,0
14.11.2017 17:00:00 -0,5 -1,4 -2,1 1,8 4,1 9,7 4 2 7 4 SSE 1027,7 6 21 0,0
14.11.2017 16:00:00 0,3 -2,0 -0,5 2,8 4,1 9,7 3 1 10 5 ENE 1027,3 12 49 0,0
14.11.2017 15:00:00 0,1 -2,1 0,4 3,6 4,0 9,7 5 3 12 7 NE 1027,1 15 23 0,0
14.11.2017 14:00:00 -0,3 -2,1 0,7 4,7 3,8 9,7 5 3 11 6 NE 1027,3 7 27 0,0
14.11.2017 13:00:00 -0,7 -1,9 0,8 4,7 3,5 9,7 2 1 7 4 NNW 1027,7 3,0 0 0,0
14.11.2017 12:00:00 -1,2 -2,1 0,0 3,8 3,3 9,7 3 2 8 5 N 1028,0 3,0 0 0,0
14.11.2017 11:00:00 -1,8 -2,4 -0,4 2,7 3,2 9,7 3 1 8 5 NE 1028,3 0,2 0 0,0
14.11.2017 10:00:00 -2,8 -3,4 -1,1 1,7 3,1 9,7 6 3 10 5 E 1028,6 0,2 0 0,0
14.11.2017 09:00:00 -2,7 -3,3 -1,3 1,3 3,1 9,7 5 3 9 5 E 1028,2 0,2 0 0,0
14.11.2017 08:00:00 -2,5 -2,9 -1,7 1,0 3,2 9,7 7 4 10 5 S 1027,7 0,2 0 0,0
14.11.2017 07:00:00 -2,2 -2,7 -1,8 1,0 3,2 9,8 5 3 9 5 ESE 1027,1 0,2 0 0,0
14.11.2017 06:00:00 -2,8 -3,4 -2,1 1,0 3,2 9,8 5 3 9 5 E 1026,7 0,3 0 0,0
14.11.2017 05:00:00 -1,8 -2,2 -1,3 1,1 3,3 9,8 3 1 9 5 E 1026,0 0,3 0 0,0
14.11.2017 04:00:00 -1,9 -2,3 -1,3 1,1 3,3 9,8 6 3 9 5 E 1025,3 0,1 0 0,0
14.11.2017 03:00:00 -1,2 -1,2 -0,9 1,1 3,3 9,8 4 2 10 5 S 1024,8 0,1 0 0,0
14.11.2017 02:00:00 -0,7 -1,1 -0,6 1,0 3,4 9,8 5 3 7 4 SE 1024,2 0,2 0 0,0
14.11.2017 01:00:00 -0,6 -1,0 -0,9 0,9 3,4 9,8 5 3 8 4 E 1023,6 1,6 0 0,0
14.11.2017 00:00:00 -0,4 -1,0 -1,5 0,9 3,5 9,8 3 2 6 4 E 1023,5 1,6 0 0,0
13.11.2017 23:00:00 0,1 -0,4 -0,4 0,9 3,6 9,8 3 2 9 5 ESE 1023,1 3,4 0 0,3
13.11.2017 22:00:00 0,3 -0,4 0,0 1,1 3,8 9,8 5 3 11 6 E 1022,6 1,1 0 0,4
13.11.2017 21:00:00 0,2 -0,3 0,0 1,0 3,9 9,8 0 0 7 4 N 1022,0 1,9 0 0,8
13.11.2017 20:00:00 0,4 -0,2 0,0 1,5 4,0 9,8 3 1 7 4 WNW 1021,4 2,8 0 0,4
13.11.2017 19:00:00 0,6 -0,2 0,0 1,7 4,2 9,8 1 0 7 4 E 1020,7 6 0 0,0
13.11.2017 18:00:00 0,4 -0,4 -0,2 1,4 4,4 9,8 5 3 9 5 SE 1020,2 9 0 1,2

tt = Température de l'air
td = dewpoint
tt 5cm = Température de l'air 5cm
tt -5cm = Température de l'air -5cm
tt -20cm = Température de l'air -20cm
tt -100cm = Température de l'air -100cm
ff = Vitesse du vent
fx = gusts
dd = Direction du vent
ppp = reduced air pressure
vv = visibility
sd = Ensoleillement
rr = Quantités de précipitations

stations d'obs. à proximité